www.dot.il.gov - /desenv/hwystds/All Web PDFs/


[To Parent Directory]

Tuesday, November 22, 2005 4:57 PM 38723584 1_Rev207_AllHighwayStandards_PDF.exe
Tuesday, November 22, 2005 5:02 PM 919040 1_Rev207_Sec000PDF.exe
Tuesday, November 22, 2005 5:03 PM 464384 1_Rev207_Sec200PDF.exe
Tuesday, November 22, 2005 5:04 PM 156160 1_Rev207_Sec300PDF.exe
Tuesday, November 22, 2005 5:06 PM 6993920 1_Rev207_Sec400PDF.exe
Tuesday, November 22, 2005 5:06 PM 7357952 1_Rev207_Sec500PDF.exe
Tuesday, November 22, 2005 5:07 PM 7204864 1_Rev207_Sec600PDF.exe
Tuesday, November 22, 2005 5:08 PM 4704256 1_Rev207_Sec630PDF.exe
Tuesday, November 22, 2005 5:08 PM 1302528 1_Rev207_Sec660PDF.exe
Tuesday, November 22, 2005 5:09 PM 5416448 1_Rev207_Sec700PDF.exe
Tuesday, November 22, 2005 5:10 PM 756736 1_Rev207_Sec720PDF.exe
Tuesday, November 22, 2005 5:10 PM 308224 1_Rev207_Sec780PDF.exe
Tuesday, November 22, 2005 5:11 PM 1757696 1_Rev207_Sec800PDF.exe
Tuesday, November 22, 2005 5:11 PM 1845760 1_Rev207_SecBLRPDF.exe
Monday, January 26, 2004 8:57 PM 640493 207-000001-04_StandardSymbolsAbbreviations&Patterns.pdf
Monday, January 26, 2004 8:58 PM 115448 207-001001_AreasOfReinfRebars.pdf
Monday, January 26, 2004 8:59 PM 146689 207-001006_DecimalOfInch&Foot.pdf
Monday, January 26, 2004 9:00 PM 58973 207-202001_EarthMedDitchCheck.pdf
Monday, January 26, 2004 9:01 PM 262309 207-280001-02_TempErosionCntrlSystems.pdf
Monday, January 26, 2004 9:01 PM 115245 207-285001-01_FabricFormedConcRevetmentMat.pdf
Thursday, April 14, 2005 12:25 PM 121979 207-353001-02_PCCBseCseWithBitConcBind&SurfCses.pdf
Tuesday, November 22, 2005 2:33 PM 279259 207-406001-03_EntrRampTermFlexPvmt.pdf
Monday, January 26, 2004 9:15 PM 366694 207-406101-02_ExitRampTerminalFlexiblePvmt.pdf
Monday, January 26, 2004 9:16 PM 83480 207-406201_MailboxTurnout.pdf
Friday, April 15, 2005 3:16 PM 262334 207-420001-06_PavementJoints.pdf
Thursday, April 14, 2005 3:39 PM 119654 207-420101-03_24ftJointedPCCPvmt.pdf
Thursday, April 14, 2005 3:40 PM 139685 207-420106-03_36ftJointedPCCPvmt.pdf
Monday, January 26, 2004 9:19 PM 284814 207-420111-01_PCCPvmtRoundouts.pdf
Tuesday, November 22, 2005 2:33 PM 359541 207-420201-05_EntrRampTerm-PCCAdjToPCC.pdf
Tuesday, November 22, 2005 2:34 PM 360279 207-420206-06_EntrRampTerm-PCCAdjToCRC.pdf
Monday, January 26, 2004 9:21 PM 443184 207-420301-03_ExitRampTerm-PCCAdjToPCC.pdf
Monday, January 26, 2004 9:22 PM 437511 207-420306-05_ExitRampTerm-PCCAdjToCRC.pdf
Monday, January 26, 2004 9:23 PM 454844 207-420401-05_BridgeApproachPvmt.pdf
Monday, January 26, 2004 9:24 PM 100512 207-420501-02_PCCPvmt&PCCBseCseAdjToRRGradeXing.pdf
Thursday, April 14, 2005 3:41 PM 96114 207-420601-04_24ftPCCPvmt.pdf
Monday, January 26, 2004 9:25 PM 114825 207-420701-01_PavementFabric.pdf
Monday, January 26, 2004 9:25 PM 124373 207-421001-01_BarReinfForCRCPvmt.pdf
Monday, January 26, 2004 9:26 PM 431166 207-421101-05_24ftCRCPvmt-wWideFlangeBeamTermJt.pdf
Monday, January 26, 2004 10:00 PM 438611 207-421106-05_36ftCRCPvmt-wWideFlangeBeamTermJt.pdf
Monday, January 26, 2004 10:01 PM 318769 207-421201-04_24ftCRCPvmt-wLugSys.pdf
Monday, January 26, 2004 10:01 PM 342198 207-421206-04_36ftCRCPvmt-wLugSys.pdf
Friday, April 15, 2005 3:20 PM 260669 207-424001-04_CurbRampsForSidewalk.pdf
Monday, January 26, 2004 10:02 PM 188238 207-442001-02_ClassAPatches.pdf
Monday, January 26, 2004 10:03 PM 279601 207-442101-05_ClassBPatches.pdf
Monday, January 26, 2004 10:03 PM 138619 207-442201-01_ClassC&DPatches.pdf
Monday, January 26, 2004 10:04 PM 117343 207-482001_BitShldAdjToFlexPvmt.pdf
Monday, January 26, 2004 10:04 PM 115560 207-482006-01_BitShldAdjToRigidPvmt.pdf
Monday, January 26, 2004 10:05 PM 221279 207-482011-01_BitShldStrips(Shlds)wResurfOrWiden&ResurfProj.pdf
Thursday, April 14, 2005 3:43 PM 193585 207-483001-02_PCCShld.pdf
Tuesday, January 27, 2004 9:36 AM 101804 207-503001-02_ConcParapetSlip-FormingOpt.pdf
Tuesday, January 27, 2004 9:38 AM 264778 207-509001_TubularThrieBeamRetrofitRailForBridge.pdf
Tuesday, January 27, 2004 9:52 AM 122999 207-515001-02_NamePlateForBridge.pdf
Tuesday, January 27, 2004 9:54 AM 107204 207-542001_ReinfConcEndSect-wParallelWngwalls12-48inDiaRtAngle.pdf
Tuesday, January 27, 2004 9:54 AM 139192 207-542101_ReinfConcEndSectForPipeCulv15-36inDiaRtAngle.pdf
Tuesday, January 27, 2004 9:55 AM 242457 207-542106_ReinfConcEndSectForPipeCulv42-60inDiaRtAngle.pdf
Tuesday, January 27, 2004 9:55 AM 264924 207-542111_ReinfConcEndSectForPipeCulv66-84inDiaRtAngle.pdf
Tuesday, January 27, 2004 9:56 AM 326356 207-542116_ReinfConcEndSectForMultPipeCulv15-36inDiaRtAngle.pdf
Tuesday, January 27, 2004 9:57 AM 351105 207-542121_ReinfConcEndSectForMultPipeCulv42-60inDiaRtAngle.pdf
Tuesday, January 27, 2004 9:58 AM 1337945 207-542201_ReinfConcEndSectForPipeCulv15-36inDiaSkewed.pdf
Tuesday, January 27, 2004 10:03 AM 903689 207-542206_ReinfConcEndSectForPipeCulv42-60inDiaSkewed.pdf
Tuesday, January 27, 2004 10:03 AM 144977 207-542301_PrecastReinfConcFlaredEndSect.pdf
Tuesday, January 27, 2004 10:04 AM 120992 207-542306_PrecastReinfConcEllipticalFlaredEndSect.pdf
Tuesday, January 27, 2004 10:04 AM 286695 207-542311_GratingForConcFlaredEndSection24-54inPipe.pdf
Tuesday, January 27, 2004 10:04 AM 176715 207-542401_MetalEndSectForPipeCulv.pdf
Tuesday, January 27, 2004 10:05 AM 175449 207-542406_MetalEndSectForPipeArch.pdf
Tuesday, January 27, 2004 10:05 AM 181065 207-542501_InletBoxTypeA24in.pdf
Tuesday, January 27, 2004 10:05 AM 208491 207-542506_InletBoxTypeB24in.pdf
Tuesday, January 27, 2004 10:06 AM 207145 207-542511_InletBoxTypeC24in.pdf
Tuesday, January 27, 2004 10:08 AM 224842 207-542516_InletBoxTypeD24in.pdf
Tuesday, January 27, 2004 10:08 AM 225954 207-542521_InletBoxTypeE24in.pdf
Tuesday, January 27, 2004 10:09 AM 254257 207-542526_InletBoxTypeF24in.pdf
Tuesday, January 27, 2004 10:09 AM 225550 207-542531-01_InletBoxTypeG24in.pdf
Tuesday, January 27, 2004 10:10 AM 239934 207-542536_InletBoxTypeA36in.pdf
Tuesday, January 27, 2004 10:10 AM 240418 207-542541_InletBoxTypeA48in.pdf
Tuesday, January 27, 2004 10:10 AM 141926 207-542546_FlushInletBoxForMedian.pdf
Tuesday, January 27, 2004 10:11 AM 74588 207-542601_RCPipeElbow.pdf
Tuesday, January 27, 2004 10:11 AM 166642 207-542606_RCPipeTee.pdf
Tuesday, January 27, 2004 12:34 PM 266503 207-601001_SubSurfDrains.pdf
Tuesday, January 27, 2004 12:34 PM 63676 207-601101_ConcHdwForPipeDrain.pdf
Tuesday, January 27, 2004 12:35 PM 132385 207-602001_CatchBasin-TypeA.pdf
Tuesday, January 27, 2004 12:35 PM 119787 207-602006_CatchBasin-TypeB.pdf
Tuesday, January 27, 2004 12:36 PM 71075 207-602011_CatchBasin-TypeC.pdf
Tuesday, January 27, 2004 12:36 PM 145380 207-602016_CatchBasin-TypeD.pdf
Saturday, March 06, 2004 10:41 AM 212719 207-602101-01_DrainStruc-Type1&2&3.pdf
Saturday, March 06, 2004 10:41 AM 210959 207-602106_DrainStruc-Type4&5&6.pdf
Tuesday, November 22, 2005 9:29 AM 77424 207-602301_01_Inlet-TypeA.pdf
Tuesday, November 22, 2005 9:30 AM 110553 207-602306_01_Inlet-TypeB.pdf
Tuesday, November 22, 2005 9:31 AM 121433 207-602401_01_Manhole-TypeA.pdf
Tuesday, November 22, 2005 2:35 PM 227364 207-602406-02_Manhole-TypeA72inDia.pdf
Tuesday, November 22, 2005 2:35 PM 244635 207-602411_Manhole-TypeA7inDia.pdf
Tuesday, November 22, 2005 2:36 PM 247305 207-602416_Manhole-TypeA8inDia.pdf
Tuesday, November 22, 2005 2:37 PM 242119 207-602421_Manhole-TypeA9inDia.pdf
Tuesday, January 27, 2004 12:38 PM 104821 207-602501_ValveVault-TypeA.pdf
Tuesday, January 27, 2004 12:38 PM 113395 207-602601_PrecastReinfConcFlatSlabTop.pdf
Tuesday, November 22, 2005 2:37 PM 93576 207-602701_01_CastIronSteps.pdf
Tuesday, January 27, 2004 12:38 PM 70899 207-604001-02_Frame&Lids-Type1.pdf
Tuesday, January 27, 2004 12:38 PM 84914 207-604006-02_Frame&GrateType3.pdf
Tuesday, January 27, 2004 12:39 PM 90782 207-604011-02_Frame&GrateType3V.pdf
Tuesday, January 27, 2004 12:39 PM 53928 207-604016-01_Frame&GrateType4.pdf
Tuesday, January 27, 2004 12:39 PM 91860 207-604021-01_BaseFrame&LidsType5.pdf
Tuesday, January 27, 2004 12:39 PM 71835 207-604026-01_Frame&GrateType6.pdf
Tuesday, January 27, 2004 12:40 PM 37966 207-604031-01_GrateType7.pdf
Tuesday, January 27, 2004 12:40 PM 42341 207-604036-01_GrateType8.pdf
Tuesday, January 27, 2004 12:40 PM 60716 207-604041-01_Frame&GrateType9.pdf
Tuesday, January 27, 2004 12:40 PM 61131 207-604046-01_Frame&GrateType10.pdf
Tuesday, November 22, 2005 9:39 AM 107669 207-604051-02_Frame&GrateType11.pdf
Tuesday, November 22, 2005 9:40 AM 120925 207-604056-02_Frame&GrateType11V.pdf
Tuesday, January 27, 2004 12:41 PM 66719 207-604061-01_Frame&GrateType12.pdf
Tuesday, January 27, 2004 12:41 PM 96180 207-604066-01_Frame&LidType15.pdf
Tuesday, January 27, 2004 12:41 PM 70946 207-604071-02_Frame&GrateType20.pdf
Tuesday, January 27, 2004 12:42 PM 94861 207-604076-02_Frame&GrateType21.pdf
Tuesday, January 27, 2004 12:42 PM 83646 207-604081-02_Frame&GrateType22.pdf
Tuesday, January 27, 2004 12:42 PM 97450 207-604086-01_Frame&GrateType23.pdf
Tuesday, January 27, 2004 12:42 PM 93796 207-604091-01_Frame&GrateType24.pdf
Tuesday, January 27, 2004 12:42 PM 107533 207-604101_MedianInletFor24inRCPipe.pdf
Tuesday, January 27, 2004 12:43 PM 112586 207-604106_MedianInletFor36inRCPipe.pdf
Tuesday, January 27, 2004 12:43 PM 276500 207-606001-02_ConcCurbTypeB&ComboConcC&G.pdf
Tuesday, January 27, 2004 12:43 PM 278033 207-606006_OutletsForConcC&G-TypeB-6.24.pdf
Tuesday, January 27, 2004 12:44 PM 210909 207-606101-01_TypeAGut-InlOutl&Entr.pdf
Tuesday, January 27, 2004 12:44 PM 123335 207-606106-02_OutlType1ForTypeAGut.pdf
Tuesday, January 27, 2004 12:44 PM 135113 207-606111-01_OutlType2ForTypeAGut.pdf
Tuesday, January 27, 2004 12:44 PM 197828 207-606201_TypeBGut-InlOutl&Entr.pdf
Tuesday, January 27, 2004 12:45 PM 117425 207-606206-01_OutlType1ForTypeBGut.pdf
Tuesday, January 27, 2004 12:45 PM 133339 207-606211-01_OutlType2ForTypeBGut.pdf
Tuesday, January 27, 2004 12:45 PM 302914 207-606301-02_PCCIslands&Medians.pdf
Tuesday, January 27, 2004 12:45 PM 113248 207-606306-01_CorrugatedPCCMedians.pdf
Tuesday, January 27, 2004 12:45 PM 145960 207-606401_PavedDitch.pdf
Tuesday, January 27, 2004 12:47 PM 263912 207-609001-02_BridgeApproachShldPvmt&Drain.pdf
Tuesday, January 27, 2004 12:47 PM 253904 207-609006-02_BridgeApproachPvmt(DrainDetail).pdf
Tuesday, January 27, 2004 12:48 PM 252181 207-610001-02_ShldInletWithCurb.pdf
Tuesday, November 22, 2005 2:39 PM 430106 207-630001-06_SteelPlateBeamGrdrail.pdf
Tuesday, November 22, 2005 2:40 PM 210757 207-630101-06_GuardrailMountedOnExCulv.pdf
Friday, August 27, 2004 4:07 PM 121430 207-630201-03_PCC-BitStb@SteelPlateBeamGrdRail.pdf
Wednesday, August 25, 2004 11:39 AM 135133 207-630301-03_ShldWidenForType1GrdrailTerms.pdf
Tuesday, January 27, 2004 12:56 PM 85879 207-631006-03_TrafBarTermType1B.pdf
Tuesday, January 27, 2004 12:57 PM 115013 207-631011-02_TrafBarTermType2.pdf
Tuesday, January 27, 2004 12:57 PM 172822 207-631026-02_TrafBarTermType5&5A.pdf
Tuesday, January 27, 2004 12:57 PM 229027 207-631031-05_TrafBarTermType6.pdf
Tuesday, November 22, 2005 2:42 PM 334484 207-631032-02_TrafBarTermType6A.pdf
Tuesday, January 27, 2004 12:58 PM 172770 207-631033-01 TrafBarTermType6B.pdf
Tuesday, January 27, 2004 12:58 PM 136547 207-631036-04_TrafBarTermType8.pdf
Tuesday, January 27, 2004 12:59 PM 132666 207-631041-01_TrafBarTermType9.pdf
Tuesday, January 27, 2004 12:59 PM 103473 207-631046-02_TrafBarTermType10.pdf
Tuesday, January 27, 2004 12:59 PM 142335 207-631051-01_TrafBarTermType11.pdf
Tuesday, January 27, 2004 12:59 PM 121692 207-631056-01_TrafBarTermType12.pdf
Tuesday, January 27, 2004 1:00 PM 204797 207-635001_Delineators.pdf
Tuesday, January 27, 2004 1:08 PM 90254 207-635006-02_Reflector&TermMrkrPlacemnt.pdf
Tuesday, January 27, 2004 1:09 PM 166549 207-635011-01_ReflectorMrkr&MountDetails.pdf
Wednesday, August 25, 2004 11:40 AM 398862 207-636001-01_CableRdGrd-SingleStrand.pdf
Tuesday, January 27, 2004 1:10 PM 156112 207-637001-02_ConcBarrierDblFace32in.pdf
Tuesday, January 27, 2004 1:10 PM 154080 207-637006_ConcBarrierDblFace42in.pdf
Tuesday, January 27, 2004 1:10 PM 89545 207-638001-01_GlareScreenBlades.pdf
Tuesday, January 27, 2004 1:11 PM 60980 207-638101-01_ConcGlareScreen.pdf
Tuesday, January 27, 2004 1:11 PM 206466 207-639001_Sightscrn-PrecstPrestressConcPanelWall.pdf
Tuesday, January 27, 2004 1:11 PM 268068 207-640001_Sightscrn-ChainLinkFence.pdf
Tuesday, January 27, 2004 1:11 PM 115774 207-641001_Sightscrn-CedarStckadeFenceTypeS.pdf
Tuesday, January 27, 2004 1:12 PM 108848 207-641006_Sightscrn-WoodPlankFenceTypeP.pdf
Tuesday, January 27, 2004 1:12 PM 91312 207-642001_ShldRumbleStrips.pdf
Tuesday, January 27, 2004 1:17 PM 452255 207-664001-01_ChainLinkFence.pdf
Tuesday, January 27, 2004 1:17 PM 552190 207-665001-01_WovenWireFence.pdf
Tuesday, January 27, 2004 1:17 PM 84509 207-666001_ROWMrkrs.pdf
Tuesday, January 27, 2004 1:18 PM 59971 207-667001_DrainageMrkrs.pdf
Tuesday, January 27, 2004 1:18 PM 92973 207-667101_PermanentSurveyMrkrs.pdf
Tuesday, January 27, 2004 1:18 PM 45511 207-668001 _MethOfResetting-USGS&NGS-Benchmarks.pdf
Wednesday, August 25, 2004 10:00 AM 58346 207-701001-01_OffRdOp-2L2W-15ftMinFromEOP-45MPH+.pdf
Wednesday, August 25, 2004 10:00 AM 93806 207-701006-02_OffRdOp-2L2W-15ftToEOP-45MPH+.pdf
Wednesday, August 25, 2004 10:01 AM 91589 207-701011-01_OffRdMovingOp-2L2W-DayOnly-45MPH+.pdf
Wednesday, August 25, 2004 10:02 AM 96092 207-701101-01_OffRdOp-MultiLn-LessThan15ftToEOP.pdf
Wednesday, August 25, 2004 10:03 AM 62359 207-701106-01_OffRdOp-MultiLn-MoreThan15ftAway.pdf
Wednesday, August 25, 2004 10:04 AM 107887 207-701201-02_LnClosure2L2W-DayOnly.pdf
Wednesday, August 25, 2004 10:05 AM 92670 207-701206-01_LnClosure2L2W-NightOnly45MPH+.pdf
Wednesday, August 25, 2004 10:21 AM 97847 207-701301-02_LnClosure2L2W-ShortTimeOp.pdf
Wednesday, August 25, 2004 10:22 AM 107890 207-701306-01_LnClosure2L2W-SlowMoveOpDayOnly45MPH+.pdf
Tuesday, January 27, 2004 1:23 PM 81284 207-701311-02_LnClosure2L2W-MovingOpDayOnly.pdf
Wednesday, August 25, 2004 11:40 AM 201482 207-701316-03_LnClosure2L2W-BridgeRepair45MPH+.pdf
Wednesday, August 25, 2004 11:42 AM 238509 207-701321-08_LnClosure2L2W-BridgeRepair+Barrier.pdf
Wednesday, August 25, 2004 10:27 AM 120567 207-701326-02_LnClosure2L2W-PvmtWidening45MPH+.pdf
Wednesday, August 25, 2004 10:28 AM 145928 207-701331-02_LnClosure2L2W+RunAround45MPH+.pdf
Wednesday, August 25, 2004 10:29 AM 146653 207-701336-04_LnClosure2L2W-WorkAreasInSeries45MPH+.pdf
Wednesday, August 25, 2004 10:31 AM 132832 207-701400-02_ApprchToLnClosure-FrwayExpway.pdf
Wednesday, August 25, 2004 10:33 AM 157623 207-701401-03_LnClosureFrwayExpway.pdf
Wednesday, April 07, 2004 9:50 AM 113984 207-701402-05_LnClosureFrwayExpway+Barrier.pdf
Wednesday, April 07, 2004 9:51 AM 115776 207-701406-04_LnClosureFrwayExpway-DayOpOnly.pdf
Wednesday, August 25, 2004 11:42 AM 279793 207-701411-03_LnClosureMultiLn-EntrOrExitRamp45MPH+.pdf
Wednesday, April 07, 2004 9:52 AM 129893 207-701416-05_LnClosureFrwayExpway+Crossover&Barrier.pdf
Wednesday, April 07, 2004 9:53 AM 129587 207-701421-01_LnClosureMultiLn-DayOpOnly45-55MPH.pdf
Wednesday, April 07, 2004 10:00 AM 154234 207-701422-01_LnClosureMultiLn-45-55MPH.pdf
Wednesday, April 07, 2004 10:01 AM 148469 207-701423-01_LnClosureMultiLn+Barrier45-55MPH.pdf
Wednesday, August 25, 2004 10:36 AM 148859 207-701426-02_LnClosureMultiLn-IntermittantOrMovingOp45MPH+.pdf
Wednesday, April 07, 2004 10:01 AM 158252 207-701431-03_LnClosureMultiLnUndivided+Crossover45-55MPH.pdf
Wednesday, August 25, 2004 10:37 AM 172332 207-701446_TwoLnClosure-FrwayExpway.pdf
Wednesday, August 25, 2004 10:37 AM 116279 207-701501-03_UrbanLnClosure2L2W-Undivided.pdf
Wednesday, August 25, 2004 11:44 AM 195131 207-701502-01_UrbanLnClosure2L2W+BidirectLeftTurnLn.pdf
Wednesday, August 25, 2004 11:44 AM 179342 207-701601-04_UrbanLnClosureMultiLn1W2W+NontrvsableMed.pdf
Wednesday, August 25, 2004 11:46 AM 324298 207-701602-02_UrbanLnClosureMultiLn2W+BidirectLeftTurnLn.pdf
Wednesday, August 25, 2004 11:47 AM 186048 207-701606-04_UrbanLnClosureMultiLn2W+MountableMed.pdf
Wednesday, August 25, 2004 10:44 AM 141914 207-701701-04_UrbanLnClosureMultiLnIntersection.pdf
Tuesday, January 27, 2004 1:30 PM 115779 207-701801-03_LnClosureMultiLn1W2W+CrosswalkOrSWClosure.pdf
Tuesday, November 22, 2005 2:42 PM 335041 207-702001-06_TrafCntrlDevices.pdf
Tuesday, January 27, 2004 1:31 PM 285327 207-704001-02_TempConcBarrier.pdf
Tuesday, January 27, 2004 1:32 PM 85098 207-720001_SignPanelMountDetails.pdf
Tuesday, January 27, 2004 1:38 PM 202083 207-720006_SignPanelErectDetails.pdf
Tuesday, January 27, 2004 1:39 PM 78871 207-720011_MetalPostsForSignsMrkrs&Delineators.pdf
Tuesday, January 27, 2004 1:39 PM 105298 207-720016-01_MastArmMountedStNameSigns.pdf
Tuesday, January 27, 2004 1:39 PM 159575 207-720021-01_SignPanels-ExtrudedAlumType.pdf
Tuesday, January 27, 2004 1:40 PM 104704 207-729001_AppOfTypesA&BPosts.pdf
Tuesday, January 27, 2004 1:31 PM 175191 207-780001-01_TypicalPvmtMrkings.pdf
Tuesday, January 27, 2004 1:31 PM 101279 207-781001-02_TypicalAppRaisedReflcPvmtMrkrs.pdf
Tuesday, January 27, 2004 1:26 PM 102029 207-805001_ElecSrvcInstallDetails.pdf
Tuesday, January 27, 2004 1:26 PM 45497 207-813001-01_JunctionBoxes.pdf
Tuesday, January 27, 2004 1:27 PM 89836 207-814001_ConcHandholes.pdf
Tuesday, January 27, 2004 1:27 PM 117545 207-814006_DblHandholes.pdf
Tuesday, January 27, 2004 1:28 PM 123069 207-857001_StdPhaseDesignationDiagrams&PhaseSeq.pdf
Tuesday, January 27, 2004 1:28 PM 81117 207-857006_SupervisedRRInterconnectCircuit-.pdf
Tuesday, November 22, 2005 9:52 AM 43922 207-862001_UPS.pdf
Tuesday, November 22, 2005 9:54 AM 126554 207-873001_TrafSignalGrounding.pdf
Wednesday, August 25, 2004 10:47 AM 105266 207-877001-02_SteelMastArmAssembly&Pole.pdf
Wednesday, August 25, 2004 10:48 AM 127502 207-877006-02_SteelMastArmAssembly&Pole+DualMastArms.pdf
Wednesday, August 25, 2004 10:49 AM 154319 207-877011-02_SteelComboMastArmAssembly&Pole.pdf
Tuesday, November 22, 2005 2:43 PM 268845 207-878001-04_ConcreteFoundationDetails.pdf
Tuesday, January 27, 2004 1:29 PM 119894 207-880001_SpanWireMountSignals&FlashBeaconInstall.pdf
Tuesday, January 27, 2004 1:29 PM 76503 207-880006_TrfSignalMountDetails-Post&BracketMount.pdf
Tuesday, January 27, 2004 1:30 PM 118333 207-886001_DetectorLoopInstallations.pdf
Tuesday, January 27, 2004 1:30 PM 62053 207-886006_TypicalLayoutsForDetectionLoops.pdf
Friday, April 15, 2005 3:20 PM 340182 207-BLR10-05_PCCPvmtSpecial-NonReinf.pdf
Thursday, April 14, 2005 3:45 PM 151120 207-BLR14-9_PCCPvmt-NonReinf.pdf
Tuesday, January 27, 2004 1:23 PM 147231 207-BLR17-3_TrafCntrlDevices-DayLaborConstr.pdf
Tuesday, January 27, 2004 1:23 PM 149205 207-BLR18-4_TrafCntrlDevices-DayLaborMaint.pdf
Tuesday, January 27, 2004 1:20 PM 129121 207-BLR2-2_CombSect&ROWMarkers.pdf
Tuesday, January 27, 2004 1:24 PM 254275 207-BLR20-4_TrafBarrierTermType5R.pdf
Tuesday, January 27, 2004 1:24 PM 122664 207-BLR21-6_TypAppTrafCntrlDevices-ConstrOnRuralLocalHwys.pdf
Tuesday, January 27, 2004 1:24 PM 104584 207-BLR22-4_TypAppTrafCntrlDevices-ConstrOnRuralLocalHwys(2L2W-RdClsdToThruTraf).pdf
Tuesday, January 27, 2004 1:25 PM 230928 207-BLR23-1_TrafBarrierTermType1.pdf
Tuesday, January 27, 2004 1:25 PM 91660 207-BLR24-1_MailboxTurn-LocalRds.pdf
Tuesday, January 27, 2004 1:25 PM 28243 207-BLR25_Type1ABarrForNonNHSRts.pdf
Tuesday, January 27, 2004 1:21 PM 93646 207-BLR6-5_SectMarkers.pdf